Tracking 20942 objects as of 4-Jul-2020
HD Live streaming from Space Station
objects crossing your sky now

COSMOS 1053

Track COSMOS 1053 now!
10-day predictions
COSMOS 1053 is classified as:


NORAD ID: 11130
Int'l Code: 1978-109C
Perigee: 1,435.9 km
Apogee: 1,495.2 km
Inclination: 74.0 °
Period: 115.1 minutes
Semi major axis: 7836 km
RCS: 0.7062 m2 (medium)
Launch date: December 5, 1978
Source: Commonwealth of Independent States (former USSR) (CIS)
Launch site: PLESETSK MISSILE AND SPACE COMPLEX (PKMTR)
aabbcc
Your satellite tracking list
Your tracking list is empty




NASA's NSSDC Master Catalog

Two Line Element Set (TLE):
1 11130U 78109C   20185.68937432 -.00000012 +00000-0 +26899-4 0  9991
2 11130 074.0162 267.9220 0037782 296.1038 218.4887 12.51457585899469
Source of the keplerian elements: AFSPC